User: anonymous   Login
Location: Caltech
(34.1382°N, 118.1253°W)
Time: 17:44:44
(UTC-08:00)
Language:

Iridium 75 - Orbit

View from above orbital plane
View from above orbital plane
View from above satellite
View from above satellite

Ground track
Ground track

The orbit data is extracted from the following two-line orbital elements,

1 25346U 98032E   15032.14469553  .00000156  00000-0  48812-4 0  1654
2 25346 086.3941 226.4823 0001979 107.2709 031.1931 14.34218031875399
Epoch (UTC): 01 February 2015 03:28:21
Eccentricity: 0.0001979
inclination: 86.3941°
perigee height: 776 km
apogee height: 779 km
right ascension of ascending node: 226.4823°
argument of perigee: 107.2709°
revolutions per day: 14.34218031
mean anomaly at epoch: 31.1931°
orbit number at epoch: 87539

The dashed part of the orbit path shows where the satellite is in the earth's shadow,  

DLR